Regional Weather Roundup
Issued by NWS

Home | Current Version | Previous Version | Graphics & Text | Print | Product List | Glossary On
Versions: 1 2 3 4 5 6 7 8 9 10 11 12 13 14 15 16 17 18 19 20 21 22 23 24 25 26 27 28 29 30 31 32 33 34 35 36 37 38 39 40 41 42 43 44 45 46 47 48 49 50
798
ASUS43 KMKX 230621
RWRWI

WISCONSIN REGIONAL WEATHER ROUNDUP
NATIONAL WEATHER SERVICE MILWAUKEE/SULLIVAN WI
100 AM CDT SUN APR 23 2017

NOTE: "FAIR" INDICATES FEW OR NO CLOUDS BELOW 12,000 FEET WITH NO
SIGNIFICANT WEATHER AND/OR OBSTRUCTIONS TO VISIBILITY.

WIZ001-002-006>008-014>016-023>028-230700-
NORTHWEST WISCONSIN

CITY           SKY/WX    TMP DP  RH WIND       PRES   REMARKS
SUPERIOR ARPT  CLOUDY    44  39  83 NE5       30.08S
6HR MIN TEMP:  44; 6HR MAX TEMP:  66;

ASHLAND        CLOUDY    46  39  76 N10       30.08R
6HR MIN TEMP:  46; 6HR MAX TEMP:  66;

HAYWARD        CLOUDY    42  33  70 CALM      30.03F
6HR MIN TEMP:  41; 6HR MAX TEMP:  65;

SIREN          CLOUDY    54  33  44 SW7       30.04F
6HR MIN TEMP:  53; 6HR MAX TEMP:  65;

CUMBERLAND     CLEAR     46  32  57 SW5       30.06F
RICE LAKE      CLEAR     51  34  52 SW3       30.07F
6HR MIN TEMP:  45; 6HR MAX TEMP:  65;

CHETEK         CLEAR     48  35  61 SW5       30.07S
6HR MIN TEMP:  47; 6HR MAX TEMP:  64;

LADYSMITH      CLEAR     49  34  55 SW5       30.07F
6HR MIN TEMP:  48; 6HR MAX TEMP:  64;

EAU CLAIRE     CLEAR     45  38  76 CALM      30.08F
6HR MIN TEMP:  44; 6HR MAX TEMP:  65;

MENOMONIE      CLEAR     50  38  62 SW3       30.09S
6HR MIN TEMP:  48; 6HR MAX TEMP:  65;

NEW RICHMOND   CLEAR     49  35  57 S5        30.07F
6HR MIN TEMP:  47; 6HR MAX TEMP:  65;

OSCEOLA        CLEAR     50  36  57 SW3       30.09S
6HR MIN TEMP:  48; 6HR MAX TEMP:  65;

$$

WIZ003>005-009-010-017-018-230700-
NORTH CENTRAL WISCONSIN

CITY           SKY/WX    TMP DP  RH WIND       PRES   REMARKS
MANITOWISH WTR PTCLDY    42  35  75 CALM      30.03F
6HR MIN TEMP:  42; 6HR MAX TEMP:  62;

ARBOR VITAE    CLEAR     52  36  54 W3        30.03F
6HR MIN TEMP:  44; 6HR MAX TEMP:  63;

WOODRUFF       CLEAR     52  36  54 W3        30.03F
6HR MIN TEMP:  44; 6HR MAX TEMP:  63;

RHINELANDER    CLEAR     50  33  52 SW7       30.05F
6HR MIN TEMP:  49; 6HR MAX TEMP:  64;

EAGLE RIVER    CLEAR     45  31  57 SW5       30.03F
6HR MIN TEMP:  44; 6HR MAX TEMP:  62;

LAND O LAKES   PTCLDY    39  34  80 CALM      30.05S
6HR MIN TEMP:  39; 6HR MAX TEMP:  64;

PHILLIPS       CLOUDY    49  33  54 SW3       30.04S
6HR MIN TEMP:  47; 6HR MAX TEMP:  63;

TOMAHAWK       CLEAR     47  32  55 CALM      30.06F
6HR MIN TEMP:  47; 6HR MAX TEMP:  62;

MEDFORD        CLEAR     49  32  52 SW5       30.08S
6HR MIN TEMP:  48; 6HR MAX TEMP:  60;

MERRILL        CLEAR     46  33  61 W3        30.07F
6HR MIN TEMP:  46; 6HR MAX TEMP:  63;

$$

WIZ029-030-035-036-043>047-230700-
CENTRAL WISCONSIN

CITY           SKY/WX    TMP DP  RH WIND       PRES   REMARKS
WAUSAU         CLEAR     53  31  42 SW8       30.07F
6HR MIN TEMP:  47; 6HR MAX TEMP:  61;

MOSINEE        CLEAR     45  32  61 SW6       30.10F
MARSHFIELD     CLEAR     48  31  51 SW6       30.08F
6HR MIN TEMP:  48; 6HR MAX TEMP:  62;

STEVENS POINT  CLEAR     37  32  81 CALM      30.10F
6HR MIN TEMP:  37; 6HR MAX TEMP:  61;

WAUPACA        PTCLDY    42  33  71 CALM      30.11S
6HR MIN TEMP:  42; 6HR MAX TEMP:  65;

WAUTOMA        CLEAR     37  33  85 MISG      30.12S
6HR MIN TEMP:  37; 6HR MAX TEMP:  63;

WISC RAPIDS    CLEAR     41  33  73 CALM      30.11F
6HR MIN TEMP:  40; 6HR MAX TEMP:  64;

CAMP DOUGLAS   CLEAR     38  33  84 CALM      30.11F
6HR MIN TEMP:  37; 6HR MAX TEMP:  63;

$$

WIZ011>013-019>022-031-037>040-048>050-230700-
NORTHEAST WISCONSIN

CITY           SKY/WX    TMP DP  RH WIND       PRES   REMARKS
ANTIGO         CLEAR     44  32  63 SW7       30.07F
6HR MIN TEMP:  43; 6HR MAX TEMP:  58;

SHAWANO        CLEAR     50  32  50 CALM      30.09S
6HR MIN TEMP:  49; 6HR MAX TEMP:  66;

OCONTO         CLEAR     48  33  55 SW5       30.07F
6HR MIN TEMP:  48; 6HR MAX TEMP:  62;

STURGEON BAY   CLEAR     53  30  41 SW9       30.07F
6HR MIN TEMP:  49; 6HR MAX TEMP:  54;

GREEN BAY      CLEAR     50  40  68 SW7       30.10S
6HR MIN TEMP:  49; 6HR MAX TEMP:  61;

MANITOWOC      CLEAR     47  30  51 SW3       30.10F
6HR MIN TEMP:  47; 6HR MAX TEMP:  53;

APPLETON       CLEAR     46  32  57 SW9       30.09F
CLINTONVILLE   CLEAR     46  30  53 SW3       30.09F
OSHKOSH        CLEAR     50  32  50 SW8       30.10F
6HR MIN TEMP:  48; 6HR MAX TEMP:  59;

$$

WIZ032>034-041-042-053>061-230700-
SOUTHWEST WISCONSIN

CITY           SKY/WX    TMP DP  RH WIND       PRES   REMARKS
LA CROSSE      CLEAR     50  41  71 SE6       30.12S
6HR MIN TEMP:  50; 6HR MAX TEMP:  68;

SPARTA         CLEAR     34  32  91 CALM      30.13S
6HR MIN TEMP:  34; 6HR MAX TEMP:  64;

VIROQUA        CLEAR     49  27  41 SW5       30.13S
6HR MIN TEMP:  49; 6HR MAX TEMP:  62;

BOSCOBEL       CLEAR     39  35  86 CALM      30.14F
6HR MIN TEMP:  38; 6HR MAX TEMP:  66;

PRAIRIE DU CHI CLEAR     41  33  72 CALM      30.14S
6HR MIN TEMP:  41; 6HR MAX TEMP:  64;

PLATTEVILLE    CLEAR     49  30  47 SW3       30.14F
6HR MIN TEMP:  49; 6HR MAX TEMP:  62;

$$

WIZ056-057-062-063-064-067-068-230700-
SOUTH CENTRAL WISCONSIN

CITY           SKY/WX    TMP DP  RH WIND       PRES   REMARKS
REEDSBURG      CLEAR     42  33  71 CALM      30.12S
6HR MIN TEMP:  42; 6HR MAX TEMP:  62;

BARABOO/DELLS  CLEAR     47  27  46 CALM      30.12S
6HR MIN TEMP:  42; 6HR MAX TEMP:  62;

LONE ROCK      CLEAR     41  35  79 CALM      30.14S
6HR MIN TEMP:  41; 6HR MAX TEMP:  64;

MINERAL POINT  CLEAR     52  23  32 SW3       30.13F
MADISON        CLEAR     41  33  73 CALM      30.12F
6HR MIN TEMP:  41; 6HR MAX TEMP:  61;

MIDDLETON      CLEAR     43  37  79 CALM      30.13F
6HR MIN TEMP:  41; 6HR MAX TEMP:  63;

WATERTOWN      CLEAR     44  31  60 CALM      30.12F
6HR MIN TEMP:  40; 6HR MAX TEMP:  60;

MONROE         CLEAR     52  27  37 SW5       30.13F
JANESVILLE     CLEAR     43  32  65 CALM      30.13F
$$

WIZ051-052-058>065-066-070>072-230700-
SOUTHEAST WISCONSIN

CITY           SKY/WX    TMP DP  RH WIND       PRES   REMARKS
MILWAUKEE      PTCLDY    45  25  45 CALM      30.13F
6HR MIN TEMP:  42; 6HR MAX TEMP:  54;

WAUKESHA       CLEAR     41  25  52 SW3       30.13F
MILWAUKEE/TIMM CLEAR     41  27  56 CALM      30.14F
RACINE         CLEAR     40  30  67 CALM      30.15F
6HR MIN TEMP:  39; 6HR MAX TEMP:  54;

KENOSHA        CLEAR     39  30  70 CALM      30.14F
6HR MIN TEMP:  39; 6HR MAX TEMP:  53;

FOND DU LAC    CLEAR     45  33  63 SW5       30.12S
6HR MIN TEMP:  43; 6HR MAX TEMP:  61;

SHEBOYGAN      CLEAR     42  31  64 SW6       30.11F
6HR MIN TEMP:  41; 6HR MAX TEMP:  54;

WEST BEND      CLEAR     45  27  49 CALM      30.12F
JUNEAU         CLEAR     45  32  61 CALM      30.13F
6HR MIN TEMP:  44; 6HR MAX TEMP:  59;

$$

LSZ147-162-230700-
LAKE SUPERIOR

STATION/POSITION TIME  TEMP    WIND        PRES    WAVE
                       AIR SEA DIR/SP/G            HT/PER
                 (UTC) (F)     (DEG/KT/KT) (MB)    (FT/S)
DEVILS ISLAND    0600   44      10/ 15/ 16 1019.5R
PORT WING        0500   47     360/  8/ 16 1019.3
SAXON HARBOR     0530   42     210/  2/  3 1017.6S
$$

LMZ867-665-643>646-230700-
LAKE MICHIGAN

STATION/POSITION TIME  TEMP    WIND        PRES    WAVE
                       AIR SEA DIR/SP/G            HT/PER
                 (UTC) (F)     (DEG/KT/KT) (MB)    (FT/S)
CHAMBERS ISLAND  0540   50     200/ 11/ 17



USA.gov is the U.S. government's official web portal to all federal, state and local government web resources and services.